Terminal Aerodrome Forecast
Issued by NWS Jackson, MS

Home | Current Version | Previous Version | Text Only | Print | Product List | Glossary On
Versions: 1 2 3 4 5 6 7 8 9 10 11 12 13 14
000
FTUS44 KJAN 231100
TAFMEI
TAF
KMEI 231124Z 2312/2412 VRB03KT 2SM BR FEW002 SCT050
     FM231300 02006KT P6SM FEW050
     FM240000 VRB03KT P6SM SKC
     FM240900 VRB03KT 5SM BR FEW250=

USA.gov is the U.S. government's official web portal to all federal, state and local government web resources and services.